Tracking 33094 objects as of 25-Jan-2026
HD Live streaming from Space Station
objects crossing your sky now

STARLINK-1171

Track STARLINK-1171 now!
10-day predictions
STARLINK-1171 is classified as:


NORAD ID: 45062
Int'l Code: 2020-006U
Perigee: 424.9 km
Apogee: 434.0 km
Inclination: 53.0 °
Period: 93.0 minutes
Semi major axis: 6800 km
RCS: Unknown
Launch date: January 29, 2020
Source: United States (US)
Launch site: AIR FORCE EASTERN TEST RANGE (AFETR)
Your satellite tracking list
Your tracking list is empty




NASA's NSSDC Master Catalog

Two Line Element Set (TLE):
1 45062U 20006U   26024.50498584  .00113718  00000-0  21098-2 0  9995
2 45062  53.0494 102.5121 0006669 231.0708 128.9705 15.48086546330122
Source of the keplerian elements: AFSPC